• In Latvia
  • List of Countries
  • For 7 days
  • Water Temperature
  • Satellite Maps
  • Weather Map
  • Weather Widgets
  • user-avatar
    Login

    Hourly Weather Kitale

    Today, 22 September, Saturday

    Time Temperature Precipitation Wind Pressure Humidity
    00:00 +18°C° 0 mm 1 mps 612 mmHg 61%
    01:00 +18°C° 0 mm 1 mps 612 mmHg 61%
    02:00 +16°C° 0 mm 1 mps 611 mmHg 60%
    03:00 +16°C° 0 mm 1 mps 612 mmHg 62%
    04:00 +15°C° 0 mm 1 mps 612 mmHg 63%
    05:00 +15°C° 0 mm 1 mps 612 mmHg 65%
    06:00 +19°C° 0 mm 1 mps 613 mmHg 60%
    07:00 +21°C° 0 mm 1 mps 614 mmHg 54%
    08:00 +24°C° 0 mm 1 mps 615 mmHg 48%
    09:00 +26°C° 0.1 mm 1 mps 616 mmHg 45%
    10:00 +28°C° 0.1 mm 1 mps 616 mmHg 42%
    11:00 +29°C° 0.1 mm 1 mps 616 mmHg 39%
    12:00 +28°C° 0.2 mm 1 mps 615 mmHg 42%
    13:00 +27°C° 0.2 mm 1 mps 614 mmHg 44%
    14:00 +26°C° 0.2 mm 1 mps 613 mmHg 47%
    15:00 +25°C° 0.2 mm 1 mps 613 mmHg 50%
    16:00 +24°C° 0.2 mm 1 mps 613 mmHg 53%
    17:00 +23°C° 0.2 mm 1 mps 612 mmHg 57%
    18:00 +22°C° 0.4 mm 1 mps 612 mmHg 61%
    19:00 +21°C° 0.4 mm 1 mps 612 mmHg 65%
    20:00 +19°C° 0.4 mm 1 mps 612 mmHg 69%
    21:00 +19°C° 0.3 mm 1 mps 612 mmHg 71%
    22:00 +19°C° 0.3 mm 1 mps 612 mmHg 73%
    23:00 +18°C° 0.3 mm 1 mps 612 mmHg 75%

    Tomorrow, 23 September, Sunday

    Time Temperature Precipitation Wind Pressure Humidity
    00:00 +18°C° 0.2 mm 1 mps 612 mmHg 75%
    01:00 +18°C° 0.2 mm 1 mps 612 mmHg 76%
    02:00 +18°C° 0.2 mm 1 mps 612 mmHg 76%
    03:00 +18°C° 0.1 mm 1 mps 612 mmHg 77%
    04:00 +18°C° 0.1 mm 1 mps 612 mmHg 78%
    05:00 +16°C° 0.1 mm 1 mps 612 mmHg 78%
    06:00 +19°C° 0.1 mm 1 mps 613 mmHg 73%
    07:00 +21°C° 0.1 mm 1 mps 614 mmHg 68%
    08:00 +22°C° 0.1 mm 1 mps 615 mmHg 63%
    09:00 +24°C° 0.1 mm 1 mps 615 mmHg 57%
    10:00 +27°C° 0.1 mm 1 mps 616 mmHg 50%
    11:00 +29°C° 0.1 mm 1 mps 616 mmHg 43%
    12:00 +28°C° 0.4 mm 1 mps 615 mmHg 45%
    13:00 +27°C° 0.4 mm 1 mps 615 mmHg 46%
    14:00 +26°C° 0.4 mm 1 mps 614 mmHg 47%
    15:00 +25°C° 0.6 mm 1 mps 613 mmHg 51%
    16:00 +24°C° 0.6 mm 1 mps 613 mmHg 55%
    17:00 +23°C° 0.6 mm 2 mps 612 mmHg 59%
    18:00 +22°C° 0.4 mm 1 mps 613 mmHg 62%
    19:00 +21°C° 0.4 mm 1 mps 613 mmHg 65%
    20:00 +20°C° 0.4 mm 1 mps 613 mmHg 68%
    21:00 +20°C° 0.1 mm 1 mps 613 mmHg 69%
    22:00 +19°C° 0.1 mm 1 mps 613 mmHg 69%
    23:00 +19°C° 0.1 mm 1 mps 613 mmHg 70%

    Day after tomorrow, 24 September, Monday

    Time Temperature Precipitation Wind Pressure Humidity
    00:00 +18°C° 0 mm 1 mps 612 mmHg 71%
    01:00 +16°C° 0 mm 1 mps 612 mmHg 72%
    02:00 +15°C° 0 mm 1 mps 611 mmHg 74%
    03:00 +15°C° 0 mm 1 mps 611 mmHg 74%
    04:00 +15°C° 0 mm 1 mps 611 mmHg 75%
    05:00 +14°C° 0 mm 1 mps 611 mmHg 76%
    06:00 +18°C° 0 mm 1 mps 612 mmHg 67%
    07:00 +21°C° 0 mm 1 mps 614 mmHg 58%
    08:00 +24°C° 0 mm 1 mps 615 mmHg 49%
    09:00 +26°C° 0 mm 1 mps 616 mmHg 44%
    10:00 +28°C° 0 mm 2 mps 616 mmHg 38%
    11:00 +30°C° 0 mm 2 mps 617 mmHg 33%
    12:00 +29°C° 0.1 mm 2 mps 616 mmHg 34%
    13:00 +29°C° 0.1 mm 2 mps 614 mmHg 34%
    14:00 +28°C° 0.1 mm 2 mps 613 mmHg 35%
    15:00 +27°C° 0.1 mm 2 mps 613 mmHg 39%
    16:00 +26°C° 0.1 mm 2 mps 613 mmHg 43%
    17:00 +25°C° 0.1 mm 2 mps 612 mmHg 46%
    18:00 +23°C° 0 mm 1 mps 612 mmHg 49%
    19:00 +22°C° 0 mm 1 mps 613 mmHg 51%
    20:00 +20°C° 0 mm 1 mps 613 mmHg 53%
    21:00 +20°C° 0 mm 1 mps 613 mmHg 55%
    22:00 +19°C° 0 mm 1 mps 613 mmHg 57%
    23:00 +19°C° 0 mm 1 mps 613 mmHg 59%

    25 September, Tuesday

    Time Temperature Precipitation Wind Pressure Humidity
    00:00 +18°C° 0 mm 1 mps 612 mmHg 62%
    01:00 +18°C° 0 mm 1 mps 611 mmHg 64%
    02:00 +16°C° 0 mm 1 mps 611 mmHg 67%
    03:00 +16°C° 0 mm 1 mps 611 mmHg 70%
    04:00 +15°C° 0 mm 1 mps 611 mmHg 72%
    05:00 +15°C° 0 mm 1 mps 611 mmHg 74%
    06:00 +19°C° 0 mm 1 mps 613 mmHg 66%
    07:00 +21°C° 0 mm 1 mps 614 mmHg 58%
    08:00 +24°C° 0 mm 1 mps 616 mmHg 50%
    09:00 +26°C° 0.1 mm 1 mps 616 mmHg 45%
    10:00 +28°C° 0.1 mm 2 mps 616 mmHg 40%
    11:00 +30°C° 0.1 mm 2 mps 617 mmHg 35%
    12:00 +29°C° 0.3 mm 2 mps 615 mmHg 36%
    13:00 +28°C° 0.3 mm 2 mps 614 mmHg 37%
    14:00 +27°C° 0.3 mm 2 mps 613 mmHg 38%
    15:00 +26°C° 0.1 mm 2 mps 613 mmHg 41%
    16:00 +25°C° 0.1 mm 2 mps 613 mmHg 43%
    17:00 +24°C° 0.1 mm 2 mps 612 mmHg 45%
    18:00 +23°C° 0 mm 2 mps 612 mmHg 49%
    19:00 +21°C° 0 mm 1 mps 612 mmHg 52%
    20:00 +19°C° 0 mm 1 mps 612 mmHg 55%
    21:00 +19°C° 0 mm 1 mps 612 mmHg 57%
    22:00 +18°C° 0 mm 1 mps 612 mmHg 58%
    23:00 +18°C° 0 mm 1 mps 612 mmHg 60%

    26 September, Wednesday

    Time Temperature Precipitation Wind Pressure Humidity
    00:00 +16°C° 0 mm 1 mps 612 mmHg 64%
    01:00 +16°C° 0 mm 1 mps 611 mmHg 67%
    02:00 +15°C° 0 mm 1 mps 611 mmHg 70%
    03:00 +15°C° 0 mm 1 mps 611 mmHg 71%
    04:00 +15°C° 0 mm 1 mps 611 mmHg 73%
    05:00 +15°C° 0 mm 1 mps 612 mmHg 74%
    06:00 +19°C° 0 mm 1 mps 613 mmHg 65%
    07:00 +22°C° 0 mm 1 mps 615 mmHg 56%
    08:00 +25°C° 0 mm 1 mps 616 mmHg 47%
    09:00 +27°C° 0 mm 1 mps 616 mmHg 42%
    10:00 +29°C° 0 mm 1 mps 616 mmHg 37%
    11:00 +31°C° 0 mm 1 mps 617 mmHg 31%
    12:00 +30°C° 0.1 mm 1 mps 615 mmHg 33%
    13:00 +29°C° 0.1 mm 2 mps 614 mmHg 34%
    14:00 +28°C° 0.1 mm 2 mps 613 mmHg 36%
    15:00 +26°C° 0.1 mm 1 mps 613 mmHg 40%
    16:00 +25°C° 0.1 mm 1 mps 612 mmHg 45%
    17:00 +23°C° 0.1 mm 1 mps 612 mmHg 49%
    18:00 +22°C° 0 mm 1 mps 612 mmHg 52%
    19:00 +21°C° 0 mm 1 mps 612 mmHg 55%
    20:00 +20°C° 0 mm 1 mps 613 mmHg 58%
    21:00 +20°C° 0 mm 1 mps 613 mmHg 58%
    22:00 +20°C° 0 mm 1 mps 613 mmHg 58%
    23:00 +19°C° 0 mm 1 mps 613 mmHg 58%

    27 September, Thursday

    Time Temperature Precipitation Wind Pressure Humidity
    00:00 +19°C° 0 mm 1 mps 612 mmHg 59%
    01:00 +18°C° 0 mm 1 mps 612 mmHg 59%
    02:00 +18°C° 0 mm 1 mps 611 mmHg 60%
    03:00 +18°C° 0.1 mm 1 mps 611 mmHg 62%
    04:00 +16°C° 0.1 mm 1 mps 611 mmHg 64%
    05:00 +16°C° 0.1 mm 1 mps 612 mmHg 66%
    06:00 +19°C° 0.1 mm 1 mps 613 mmHg 61%
    07:00 +21°C° 0.1 mm 1 mps 614 mmHg 56%
    08:00 +24°C° 0.1 mm 1 mps 616 mmHg 51%
    09:00 +25°C° 0.1 mm 1 mps 616 mmHg 47%
    10:00 +27°C° 0.1 mm 1 mps 616 mmHg 42%
    11:00 +29°C° 0.1 mm 1 mps 616 mmHg 38%
    12:00 +28°C° 0.2 mm 1 mps 615 mmHg 41%
    13:00 +27°C° 0.2 mm 1 mps 614 mmHg 45%
    14:00 +25°C° 0.2 mm 1 mps 612 mmHg 48%
    15:00 +25°C° 0.5 mm 1 mps 612 mmHg 51%
    16:00 +24°C° 0.5 mm 2 mps 612 mmHg 55%
    17:00 +23°C° 0.5 mm 2 mps 612 mmHg 58%
    18:00 +21°C° 0.6 mm 2 mps 613 mmHg 63%
    19:00 +20°C° 0.6 mm 2 mps 613 mmHg 67%
    20:00 +19°C° 0.6 mm 2 mps 613 mmHg 72%
    21:00 +19°C° 0.6 mm 1 mps 613 mmHg 73%
    22:00 +19°C° 0.6 mm 1 mps 613 mmHg 74%
    23:00 +19°C° 0.6 mm 1 mps 613 mmHg 74%
    Show more